Tracking 19283 objects as of 17-Nov-2018
HD Live streaming from Space Station
objects crossing your sky now

CLUSTER II-FM6

Track CLUSTER II-FM6 now!
CLUSTER II-FM6 is classified as:


NORAD ID: 26410
Int'l Code: 2000-041A
Perigee: 36,485.4 km
Apogee: 96,358.0 km
Inclination: 131.0 °
Period: 3,257.6 minutes
Semi major axis: 72792 km
RCS: 1.9953 m2 (large)
Launch date: July 16, 2000
Source: European Space Agency (ESA)
Launch site: TYURATAM MISSILE AND SPACE COMPLEX (TTMTR)
aabbcc
Your satellite tracking list
Your tracking list is empty




NASA's NSSDC Master Catalog

Two Line Element Set (TLE):
1 26410U 00041A   18322.58413367  .00000661  00000-0  00000+0 0  9993
2 26410 131.0293 337.2803 4112541 166.5085   0.4890  0.44204989 19796
Source of the keplerian elements: AFSPC